Volver al catálogo

TELSTAR 4

TELSTAR 402R

ActivoComunicacionesGEO
NORAD 23670·PAYLOAD·🇺🇸 United States

Lanzado Sep 24, 1995 desde Guiana Space Centre

Loading…

TLE

ActualizadoSource: Space-Track

Época: Sep 14, 2026, 09:26 UTC

1 23670U 95049A   26257.39306682 -.00000205  00000-0  00000-0 0  9992
2 23670  13.6545  12.0066 0001372 250.3036 142.4807  1.00261884113406

Sigue TELSTAR 4 en tiempo real con AllMySat

Download on the App Store